Погода Курган-Тюбе

Погода Курган-Тюбе : погода сейчас, прогноз погоды и архив. Всё, что Вы хотите узнать о погоде Курган-Тюбе!

Поиск расширенной информации на нашем сайте:

Другие новости

Новости СМИ2

Главная страница сайта

Новости сайта

03.07.2017

Напоминаем, что на нашем специализированном сайте Метеоцентр.Азия вы можете получить высокодетализированные автоматические прогнозы погоды по пунктам России, СНГ и мира в авиационном формате (включающие направление и скорость ветра, видимость, явления погоды, количество и форму облачности, нижнюю и верхнюю границу облачности).


Погода Курган-Тюбе - сегодня

Время (UTC), дата Ветер
(°,м/с) 
Видим.   Явления Облачность Т
(°С)
Тd
(°С)
f(%) Тe
(°С)
Pmin
(гПа)
dP
(гПа)
Po
(мм)
O2
(г/м3)
Тmin Tmax R s Состояние
почвы
18 18.06.18 360 (С) н/о    ясно 
+26.3 +14.3 48 +35  1000.3  0.2  715  260    +37.6       
21 18.06.18 360 (С) н/о    ясно 
+21.6 +13.2 59 +28  1001.2  0.1  715  264           
00 19.06.18 050 (СВ) 10 км    ясно 
+20 +12.5 62 +26  1001.9  0.5  715  266           
03 19.06.18 тихо ()   20000 м    ясно 
+25.8 +16.8 58 +39  1002.2  1.2  716  260  +19.8         
06 19.06.18 тихо ()   20000 м    ясно 
+33 +16.6 38 +46  1002.1  724  257  +19.5         
09 19.06.18 140 (ЮВ) 20000 м    ясно 
+37 +15.3 28 +47  1000.5  -1  716  251           
12 19.06.18 тихо ()   20000 м    ясно 
+36 +15.9 30 +48  999.5  -1.1  715  251           
15 19.06.18 тихо ()   20000 м    ясно 
+30.4 +15.6 41 +42  998.7  -1.5  714  256    +38       
18 19.06.18 090 (В) н/о    ясно 
+25.6 +15.9 55 +37  1000.6  1.1  715  260    +38       
21 19.06.18 050 (СВ) н/о    4/0 верхняя 
[Ci sp]
+21.8 +15.9 69 +33  1001.7  0.5  715  263           
00 20.06.18 230 (ЮЗ) 10 км  {гроза, ливн. осадки}  6/6 1500 м 
[Sc]
+26.2 +14.6 49 +35  1002  0.8  716  260           
06 20.06.18 050 (СВ) 10 км    3/3 1000 м 
[Cu med, cong]
+33.6 +18.3 40 +50  1003.7  0.9  718  254  +21    0.0     
09 20.06.18 140 (ЮВ) 10 км    9/8 1500 м средняя 
[Sc|Ac trans]
+34 +18.2 39 +50  1004.8  719  254           
12 20.06.18 360 (С) 20000 м    9/9 1500 м 
[Sc]
+31.2 +17.4 44 +46  1003.9  -1.2  718  256           
15 20.06.18 050 (СВ) 20000 м    4/0 средняя 
[Ac trans]
+29.6 +16.4 45 +42  1003.5  -0.7  718  257    +36.1       
18 20.06.18 050 (СВ) н/о    ясно 
+25 +14.9 53 +35  1005.5  1.2  718  262    +36.1       
21 20.06.18 090 (В) н/о    ясно 
+20.8 +14.9 69 +30  1006.7  0.5  719  266           
00 21.06.18 тихо ()   20000 м    ясно 
+19.8 +15.2 75 +30  1006.9  719  267           
03 21.06.18 тихо ()   20000 м    ясно 
+25.2 +18.1 65 +41  1007.3  1.4  720  261  +18.7         
06 21.06.18 тихо ()   20000 м    ясно 
+32 +17.5 42 +47  1007.5  1.1  721  256  +18.7         
09 21.06.18 180 (Ю) 20000 м    ясно 
+33.8 +15.9 34 +45  1005.5  -1.6  719  255           
12 21.06.18 180 (Ю) 20000 м    ясно 
+34.2 +14 30 +42  1003.9  -1.5  718  254           
15 21.06.18 180 (Ю) 20000 м    ясно 
+29.6 +12.2 34 +35  1004.4  -0.3  718  259    +34.9       
18 21.06.18 090 (В) н/о    ясно 
+24 +12.9 50 +30  1006  0.7  719  264    +34.9       
21 21.06.18 050 (СВ) н/о    ясно 
+19.9 +12.2 61 +26  1006.7  719  268           
Время (UTC), дата Ветер
(°,м/с) 
Видим.   Явления Облачность Т
(°С)
Тd
(°С)
f(%) Тe
(°С)
Pmin
(гПа)
dP
(гПа)
Po
(мм)
O2
(г/м3)
Тmin Tmax R s Состояние
почвы

Для получения пояснительной информации подведите курсор к названию столбца.

ПОГОДА Курган-Тюбе - архив

Всё, что Вы хотите узнать о погоде Курган-Тюбе - удобно и подробно!

Выберите нужную дату (начиная с 1 января 2015* года) и нажмите кнопку "Найти".
Будут отображены архивные сводки погоды по пункту Курган-Тюбе, начиная с указанной даты.


Отображать данные в формате CSV (для использования в таблицах Excel)


Внимание! Наш архив погоды предназначен исключительно для личного некоммерческого использования в познавательных целях. Если Вам необходимы официальные справки о состоянии погоды (для производственных, юридических, коммерческих и т.п. целей), обращайтесь в органы Росгидромета.

*Примечание: данная дата относится к архиву по метеостанциям СССР (Россия, СНГ, Балтия).
Архив по метеостанциям Зарубежной Европы и Азии (кроме Китая) хранится 10 дней, по другим регионам земного шара (Китай, Африка, Америка, Австралия, Океания) - 1 день.

Курган-Тюбе - район местоположения метеостанции


Название, широта, долгота, высота метеостанции:
Курган-Тюбе 37.8°ш. 68.8°д. 429 м над ур. моря [Таджикистан]

Дополнительная информация

В oтличие oт бoльшинства пoгoдных сайтoв мы публикуем пoдрoбную метеoинфoрмацию в детальнoм прoфессиoнальнoм фoрмате.

Характеристики температуры и влажнoсти вoздуха измеряются на высoте 2 м в тени вдали oт зданий и деревьев.
Скoрoсть ветра измеряется на высoте 10 м (на урoвне рoста челoвека скoрoсть ветра ниже в 1.5-2 раза). Если метеoстанция нахoдится в гoрoде или в лесу, тo скoрoсть ветра занижена на 2-4 м/с пo сравнению с oткрытым местoм. Скoрoсть ветра над акватoриями крупных рек и oзёр, а также на вершинах хoлмoв на 2-5 м/с выше, чем в oбычных услoвиях.
Атмoсфернoе давление в разных тoчках местнoсти мoжет значительнo oтличаться oт давления на метеoстанции, в зависимoсти oт услoвий рельефа (при пoдъёме на 10 м давление пoнижается примернo на 1 мм рт.ст.).